x

Sand Key, Fl (sanf1) Weather Station

5:50pm - Sun 19th Feb 2017 All times are CST. -5 hours from GMT.

  • Wind
    3mph, 9mph gusts
  • Air Temp 77°f
  • Sea Pressure 1017.6mb
  • Sand Key, Fl
  • Sand Key, Fl

More Historic Weather Station data

Upgrade to MSW Pro to gain access to the past 30 days of data for over 8000 Wavebouys and Weather Stations around the globe.

Join Pro

Comparision Forecast

View Surf forecast
   
Sun 02/19 5:50pm 3 9 mph 1017.6mb 77f
4:50pm  -  6 mph 1017.6mb 77f
3:50pm 5
mph
1017.8mb 77f
2:50pm 1 8 mph 1017.8mb 77f
1:50pm 7 8 mph 1018.2mb 77f
12:50pm 6
mph
1018.8mb 77f
11:50am 3 6 mph 1019mb 76f
10:50am 3
mph
1019.4mb 76f
9:50am 5 11 mph 1019.5mb 76f
8:50am 5 29 mph 1019mb 76f
7:50am 6
mph
1018.4mb 76f
6:50am 5 6 mph 1017.5mb 76f
5:50am 6
mph
1017.1mb 76f
4:50am 6
mph
1016.7mb 76f
3:50am 8 9 mph 1016.5mb 76f
2:50am 3 5 mph 1016.6mb 76f
1:50am 7
mph
1016.8mb 76f
12:50am 7 8 mph 1017.2mb 76f
Sat 02/18 11:50pm 7 8 mph 1017.6mb 76f
10:50pm 8 9 mph 1017.9mb 76f
9:50pm 9 10 mph 1017.9mb 76f
8:50pm 8 9 mph 1017.5mb 76f
7:50pm 8 9 mph 1017mb 76f
6:50pm 6
mph
1016.5mb 76f
5:50pm 8
mph
1016.2mb 76f
4:50pm 8 9 mph 1015.7mb 76f
3:50pm 11 13 mph 1015.5mb 76f
2:50pm 15 16 mph 1015.9mb 76f
1:50pm 13 15 mph 1016.8mb 77f
12:50pm 14 16 mph 1017.4mb 76f
11:50am 13 15 mph 1018.1mb 76f
10:50am 14 16 mph 1018.3mb 77f
9:50am 13 14 mph 1017.9mb 76f
8:50am 11 15 mph 1017.2mb 76f
7:50am  -  mph 1016.7mb 75f
6:50am 11 13 mph 1016.3mb 75f
5:50am 10 11 mph 1016.4mb 74f
4:50am 9 10 mph 1016.2mb 73f
3:50am 10 11 mph 1016.1mb 73f
2:50am 9 10 mph 1016.4mb 72f
1:50am 8 10 mph 1016.9mb 72f
12:50am 8 10 mph 1017.3mb 71f
Fri 02/17 11:50pm 3 5 mph 1018.1mb 71f
10:50pm 6 7 mph 1018.4mb 71f
9:50pm 8 10 mph 1018.1mb 70f
8:50pm 9 10 mph 1018mb 70f
7:50pm 7 8 mph 1017.9mb 70f
6:50pm 5 6 mph 1017.7mb 70f
5:50pm 3 6 mph 1017.9mb 70f
4:50pm 6 7 mph 1017.5mb 69f
3:50pm 3 6 mph 1017.8mb 69f
2:50pm 5 7 mph 1018.3mb 69f
1:50pm 5 7 mph 1019mb 69f
12:50pm 6 7 mph 1019.9mb 68f
11:50am 9 10 mph 1020.5mb 68f
10:50am 11 14 mph 1020.8mb 68f
9:50am 6 9 mph 1020.8mb 68f
8:50am 8 10 mph 1020.4mb 68f
7:50am 10 14 mph 1019.6mb 67f
6:50am 14 16 mph 1018.7mb 67f
5:50am 11 14 mph 1018mb 67f
4:50am 15 18 mph 1017.6mb 67f
3:50am 14 17 mph 1017.9mb 67f
2:50am 10 14 mph 1018.1mb 67f
1:50am 11 16 mph 1018.8mb 67f
12:50am 15 18 mph 1018.5mb 67f
Thu 02/16 11:50pm 13 15 mph 1018.9mb 67f
10:50pm 11 15 mph 1019mb 68f
9:50pm 14 18 mph 1018.6mb 68f
8:50pm 18 21 mph 1018.2mb 68f
7:50pm 15 17 mph 1017.8mb 68f
6:50pm 16 20 mph 1017.5mb 69f
5:50pm 17 22 mph 1017.1mb 70f
4:50pm 17 20 mph 1016.6mb 71f
3:50pm 16 20 mph 1016.3mb 71f
2:50pm 14 17 mph 1016.8mb 71f
1:50pm 16 20 mph 1016.2mb 71f
12:50pm 14 17 mph 1017.6mb 71f
11:50am 14 16 mph 1017.9mb 73f
10:50am 15 16 mph 1017.9mb 73f
9:50am 15 17 mph 1017.8mb 73f
8:50am 15 17 mph 1017.2mb 73f
7:50am 17 20 mph 1016.5mb 73f
6:50am 17 20 mph 1015.6mb 73f
5:50am  -  mph 1015.1mb 73f
4:50am  -  mph 1014.6mb 73f
3:50am  -  mph 1014.6mb 73f
2:50am  -  mph 1014.6mb 75f
1:50am 14 16 mph 1014.9mb 74f
12:50am 13 14 mph 1014.9mb 75f
Wed 02/15 11:50pm 14 17 mph 1015.1mb 74f